This is the latest recevied weather packets stored in our database for station/object N0ZMJ-4. If no packets are shown the sender has not sent any weather packets the latest 10 day(s).
| Time | Temp. | Humidity | Pressure | Rain* | Wind** | Luminosity | Snow |
|---|---|---|---|---|---|---|---|
| 1777754103 | 18.89° C | 36% | 1012.2 hPa | 0 mm | - | - | - |
| 1777753803 | 18.89° C | 36% | 1012.4 hPa | 0 mm | - | - | - |
| 1777753503 | 18.89° C | 37% | 1012.5 hPa | 0 mm | - | - | - |
| 1777753203 | 19.44° C | 38% | 1012.3 hPa | 0 mm | - | - | - |
| 1777752903 | 19.44° C | 38% | 1012.1 hPa | 0 mm | - | - | - |
| 1777752603 | 19.44° C | 38% | 1012.2 hPa | 0 mm | - | - | - |
| 1777752303 | 19.44° C | 39% | 1012.2 hPa | 0 mm | - | - | - |
| 1777752003 | 19.44° C | 40% | 1012.2 hPa | 0 mm | - | - | - |
| 1777751703 | 19.44° C | 38% | 1012.4 hPa | 0 mm | - | - | - |
| 1777751402 | 19.44° C | 38% | 1012.4 hPa | 0 mm | - | - | - |
| 1777751103 | 19.44° C | 39% | 1012.4 hPa | 0 mm | - | - | - |
| 1777750803 | 19.44° C | 40% | 1012.3 hPa | 0 mm | - | - | - |
| 1777750503 | 18.89° C | 40% | 1012.5 hPa | 0 mm | - | - | - |
| 1777750203 | 18.89° C | 41% | 1012.6 hPa | 0 mm | - | - | - |
| 1777749903 | 18.33° C | 42% | 1012.7 hPa | 0 mm | - | - | - |
| 1777749603 | 17.78° C | 43% | 1012.9 hPa | 0 mm | - | - | - |
| 1777749303 | 17.78° C | 43% | 1013.1 hPa | 0 mm | - | - | - |
| 1777749003 | 17.78° C | 42% | 1013.2 hPa | 0 mm | - | - | - |
| 1777748703 | 17.78° C | 42% | 1013.5 hPa | 0 mm | - | - | - |
| 1777748403 | 17.78° C | 40% | 1013.6 hPa | 0 mm | - | - | - |
| 1777748103 | 18.33° C | 42% | 1013.6 hPa | 0 mm | - | - | - |
| 1777747803 | 18.33° C | 43% | 1013.7 hPa | 0 mm | - | - | - |
| 1777747502 | 18.33° C | 44% | 1013.8 hPa | 0 mm | - | - | - |
| 1777747203 | 18.33° C | 41% | 1013.7 hPa | 0 mm | - | - | - |
| 1777746903 | 18.33° C | 44% | 1013.9 hPa | 0 mm | - | - | - |
* Rain latest hour (hover to see other rain measurements)
** Current wind speed in m/s (hover to see current wind gust speed)